Weather History for Lexington, NE

Change the Weather History Date:

Friday, January 4, 2013

  Actual Average Record
Temperature  
Mean Temperature 20 °F -  
Max Temperature 36 °F 38 °F 60 °F (2001)
Min Temperature 5 °F 12 °F -13 °F (1999)
Degree Days  
Heating Degree Days 44    
Moisture  
Dew Point 11 °F    
Average Humidity 76    
Maximum Humidity 89    
Minimum Humidity 50    
Precipitation  
Precipitation 0.00 in - - ()
Sea Level Pressure  
Sea Level Pressure 30.13 in    
Wind  
Wind Speed 4 mph (WSW)    
Max Wind Speed 8 mph    
Max Gust Speed -    
Visibility 10 miles    
Events      
Averages and records for this station are not official NWS values.
T = Trace of Precipitation, MM = Missing Value Source: NWS Daily Summary

Daily Weather History Graph

Daily Weather History Graph

Search for Another Location

Airport:

Trip Planner

Search our weather history database for the weather conditions in past years. The results will help you decide how hot, cold, wet, or windy it might be!

Date:

Astronomy

Jan. 04, 2013 Rise Set
Actual Time 8:03 AM CST 5:25 PM CST
Civil Twilight 7:32 AM CST 5:55 PM CST
Nautical Twilight 6:58 AM CST 6:30 PM CST
Astronomical Twilight 6:25 AM CST 7:03 PM CST
Moon 12:04 AM CST (1/4) 11:44 AM CST (1/4)
Length of Visible Light 10h 23m
Length of Day
9h 21m
Waning Gibbous, 55% of the Moon is Illuminated
Jan 4
Waning Gibbous
Jan 4
Last Quarter
Jan 11
New
Jan 18
First Quarter
Jan 26
Full

Hourly Weather History & Observations

Time (CST) Temp. Windchill Dew Point Humidity Pressure Visibility Wind Dir Wind Speed Gust Speed Precip Events Conditions
12:15 AM 6.8 °F - 3.9 °F 88% 30.23 in 5.0 mi Calm Calm - N/A   Clear
12:35 AM 7.2 °F - 3.9 °F 87% 30.23 in 10.0 mi Calm Calm - N/A   Clear
12:55 AM 8.2 °F -0.3 °F 5.5 °F 89% 30.22 in 7.0 mi WNW 4.6 mph - N/A   Clear
1:15 AM 7.0 °F -1.7 °F 3.7 °F 87% 30.21 in 10.0 mi West 4.6 mph - N/A   Clear
1:35 AM 5.7 °F -6.1 °F 2.7 °F 87% 30.20 in 10.0 mi West 6.9 mph - N/A   Clear
1:55 AM 8.2 °F -1.8 °F 5.2 °F 87% 30.20 in 10.0 mi West 5.8 mph - N/A   Clear
2:35 AM 8.4 °F -0.1 °F 5.2 °F 87% 30.19 in 10.0 mi West 4.6 mph - N/A   Clear
2:55 AM 7.0 °F -1.7 °F 3.9 °F 87% 30.19 in 10.0 mi West 4.6 mph - N/A   Clear
3:15 AM 6.4 °F -2.4 °F 3.2 °F 87% 30.19 in 10.0 mi WNW 4.6 mph - N/A   Clear
5:55 AM 5.0 °F -4.1 °F 1.4 °F 85% 30.17 in 10.0 mi West 4.6 mph - N/A   Clear
6:15 AM 5.5 °F -1.5 °F 2.3 °F 86% 30.17 in 10.0 mi WSW 3.5 mph - N/A   Clear
6:35 AM 5.0 °F -2.1 °F 1.4 °F 85% 30.18 in 10.0 mi WSW 3.5 mph - N/A   Clear
6:55 AM 5.7 °F -4.8 °F 2.3 °F 86% 30.17 in 10.0 mi WSW 5.8 mph - N/A   Clear
7:15 AM 5.9 °F -4.5 °F 2.7 °F 87% 30.17 in 10.0 mi WSW 5.8 mph - N/A   Clear
7:35 AM 6.4 °F -2.4 °F 3.0 °F 86% 30.16 in 10.0 mi West 4.6 mph - N/A   Clear
7:55 AM 6.1 °F -4.3 °F 2.5 °F 85% 30.16 in 10.0 mi West 5.8 mph - N/A   Clear
8:15 AM 5.9 °F -4.5 °F 2.3 °F 85% 30.17 in 10.0 mi West 5.8 mph - N/A   Clear
8:35 AM 5.7 °F -4.8 °F 2.1 °F 85% 30.18 in 10.0 mi West 5.8 mph - N/A   Clear
8:55 AM 8.1 °F -2.0 °F 4.3 °F 85% 30.18 in 10.0 mi WSW 5.8 mph - N/A   Clear
9:15 AM 10.6 °F 1.0 °F 6.6 °F 84% 30.18 in 10.0 mi WSW 5.8 mph - N/A   Clear
9:35 AM 14.2 °F 4.1 °F 9.7 °F 82% 30.18 in 10.0 mi West 6.9 mph - N/A   Clear
9:55 AM 15.6 °F 5.9 °F 9.9 °F 78% 30.19 in 10.0 mi West 6.9 mph - N/A   Clear
10:15 AM 16.9 °F 6.4 °F 10.4 °F 76% 30.19 in 10.0 mi WNW 8.1 mph - N/A   Clear
10:35 AM 18.5 °F 8.4 °F 11.3 °F 73% 30.19 in 10.0 mi WNW 8.1 mph - N/A   Clear
10:55 AM 20.7 °F 11.9 °F 12.7 °F 71% 30.20 in 10.0 mi WNW 6.9 mph - N/A   Clear
11:15 AM 23.4 °F 16.2 °F 14.5 °F 69% 30.20 in 10.0 mi West 5.8 mph - N/A   Clear
11:35 AM 24.8 °F 17.9 °F 14.2 °F 64% 30.19 in 10.0 mi SW 5.8 mph - N/A   Clear
11:55 AM 26.1 °F 19.4 °F 14.0 °F 60% 30.19 in 10.0 mi WSW 5.8 mph - N/A   Clear
12:15 PM 28.8 °F 23.7 °F 14.7 °F 56% 30.17 in 10.0 mi WSW 4.6 mph - N/A   Clear
12:35 PM 30.0 °F 25.2 °F 16.0 °F 56% 30.16 in 10.0 mi West 4.6 mph - N/A   Clear
12:55 PM 30.9 °F 25.2 °F 15.6 °F 53% 30.14 in 10.0 mi WNW 5.8 mph - N/A   Clear
1:15 PM 31.8 °F 27.3 °F 16.7 °F 54% 30.13 in 10.0 mi WNW 4.6 mph - N/A   Clear
1:35 PM 32.0 °F 27.5 °F 18.5 °F 58% 30.11 in 10.0 mi NW 4.6 mph - N/A   Clear
1:55 PM 32.9 °F 29.8 °F 18.0 °F 54% 30.10 in 10.0 mi WNW 3.5 mph - N/A   Clear
2:15 PM 33.8 °F 30.8 °F 18.7 °F 54% 30.09 in 10.0 mi WNW 3.5 mph - N/A   Clear
2:35 PM 34.7 °F 31.8 °F 19.6 °F 54% 30.08 in 10.0 mi WNW 3.5 mph - N/A   Clear
2:55 PM 36.1 °F 30.6 °F 19.6 °F 51% 30.08 in 10.0 mi SSW 6.9 mph - N/A   Clear
3:15 PM 36.5 °F 31.8 °F 19.6 °F 50% 30.08 in 10.0 mi South 5.8 mph - N/A   Clear
3:35 PM 36.5 °F 31.8 °F 19.8 °F 51% 30.08 in 10.0 mi South 5.8 mph - N/A   Clear
3:55 PM 36.1 °F 31.4 °F 21.2 °F 55% 30.09 in 10.0 mi South 5.8 mph - N/A   Clear
4:15 PM 34.0 °F 29.8 °F 21.2 °F 60% 30.08 in 10.0 mi SW 4.6 mph - N/A   Clear
4:35 PM 33.3 °F 30.2 °F 21.2 °F 61% 30.08 in 10.0 mi WSW 3.5 mph - N/A   Clear
4:55 PM 31.6 °F 26.0 °F 21.0 °F 65% 30.08 in 10.0 mi SW 5.8 mph - N/A   Clear
5:35 PM 27.7 °F 23.8 °F 18.1 °F 67% 30.09 in 10.0 mi SSW 3.5 mph - N/A   Clear
5:55 PM 27.3 °F 23.4 °F 18.5 °F 69% 30.08 in 10.0 mi SSW 3.5 mph - N/A   Clear
6:15 PM 23.9 °F 15.8 °F 16.9 °F 75% 30.09 in 10.0 mi SSW 6.9 mph - N/A   Clear
6:35 PM 23.7 °F 19.3 °F 16.7 °F 75% 30.08 in 10.0 mi SW 3.5 mph - N/A   Clear
6:55 PM 22.3 °F - 16.0 °F 77% 30.08 in 10.0 mi Calm Calm - N/A   Clear
7:15 PM 16.5 °F - 11.7 °F 81% 30.08 in 10.0 mi Calm Calm - N/A   Clear
7:35 PM 20.1 °F - 16.2 °F 85% 30.09 in 10.0 mi Calm Calm - N/A   Clear
7:55 PM 21.0 °F 16.2 °F 17.2 °F 85% 30.08 in 10.0 mi SSE 3.5 mph - N/A   Clear
8:15 PM 19.4 °F 14.3 °F 14.5 °F 81% 30.08 in 10.0 mi South 3.5 mph - N/A   Clear
8:35 PM 17.2 °F - 13.1 °F 84% 30.07 in 10.0 mi Calm Calm - N/A   Clear
8:55 PM 19.4 °F 14.3 °F 16.0 °F 87% 30.07 in 10.0 mi SW 3.5 mph - N/A   Clear
9:15 PM 16.5 °F - 13.5 °F 88% 30.06 in 10.0 mi Calm Calm - N/A   Clear
9:35 PM 16.9 °F 11.5 °F 13.3 °F 86% 30.06 in 10.0 mi West 3.5 mph - N/A   Clear
9:55 PM 16.0 °F 8.8 °F 12.0 °F 84% 30.06 in 10.0 mi West 4.6 mph - N/A   Clear
10:15 PM 15.1 °F 6.4 °F 10.4 °F 82% 30.06 in 10.0 mi West 5.8 mph - N/A   Clear
10:35 PM 16.7 °F 8.3 °F 12.6 °F 84% 30.05 in 10.0 mi West 5.8 mph - N/A   Clear
10:55 PM 14.4 °F 6.9 °F 10.2 °F 84% 30.05 in 10.0 mi SW 4.6 mph - N/A   Clear
11:15 PM 12.2 °F 6.1 °F 9.0 °F 87% 30.05 in 10.0 mi West 3.5 mph - N/A   Clear
11:35 PM 10.8 °F 1.2 °F 7.5 °F 87% 30.04 in 10.0 mi West 5.8 mph - N/A   Clear
11:55 PM 11.7 °F 0.0 °F 8.1 °F 85% 30.04 in 10.0 mi West 8.1 mph - N/A   Clear